Preview of NWS' New Version of Forecast
This preview is not operational and should not be used for support decisions.

Regional Weather Roundup (RWR)

Issued by National Weather Service (NWS)

                            
000
ASUS43 KDTX 231710
RWRMI 
MICHIGAN HOURLY REGIONAL WEATHER ROUNDUP
NATIONAL WEATHER SERVICE DETROIT/PONTIAC MI
1200 PM EST SAT FEB 23 2019

NOTE: "FAIR" INDICATES FEW OR NO CLOUDS BELOW 12,000 FEET WITH NO
SIGNIFICANT WEATHER AND/OR OBSTRUCTION TO VISIBILITY.

MIZ047>049-052>055-059>063-066>070-074>076-081>083-231800-
SOUTHEAST LOWER MICHIGAN
  
CITY           SKY/WX    TMP DP  RH WIND       PRES   REMARKS
ADRIAN         CLOUDY    34  26  72 SE12      30.10F WCI  25          
ALMA           CLOUDY    33  26  74 E12       30.12F WCI  24          
ANN ARBOR      CLOUDY    35  26  69 E8        30.09F WCI  29          
BAD AXE        CLOUDY    32  26  77 E10G17    30.17F WCI  24          
CARO           CLOUDY    36  27  69 E10       30.15F WCI  28          
DETROIT CITY   PTSUNNY   35  26  69 E14       30.13F WCI  26          
DETROIT        CLOUDY    36  25  64 E9        30.12F WCI  29          
FLINT          CLOUDY    38  25  59 E13       30.11F WCI  30          
GROSSE ILE     PTSUNNY   36  28  74 E8        30.11F WCI  29          
HILLSDALE      CLOUDY    37  26  63 E12       30.04F WCI  29          
HOWELL         CLOUDY    37  23  57 E7        30.09F WCI  32          

CITY           SKY/WX    TMP DP  RH WIND       PRES   REMARKS
JACKSON        CLOUDY    38  28  67 E9        30.06F WCI  31          
LAMBERTVILLE   CLOUDY    34  29  82 E8G17     30.10F WCI  27          
LANSING        CLOUDY    37  25  61 E15       30.08F WCI  28          
LAPEER         CLOUDY    36  24  61 SE6       30.14F WCI  32          
MASON          CLOUDY    37  25  62 SE9       30.08F WCI  30          
MONROE         CLOUDY    35  29  79 E9        30.10F WCI  28          
MT. CLEMENS    PTSUNNY   34  30  86 E10       30.12F WCI  26          
PONTIAC        CLOUDY    33  24  69 E15       30.09F WCI  23          
PORT HOPE        N/A     31  26  82 E14       30.20F WCI  21          
PORT HURON     CLOUDY    36  27  69 E10       30.16F WCI  28          
TRI CITIES     CLOUDY    34  26  72 E14       30.15F WCI  25          
MIDLAND        CLOUDY    32  26  77 E14       30.14F WCI  22          
TROY           CLOUDY    35  23  61 E10       30.14F WCI  27          
SAGINAW HB     CLOUDY    34  28  80 NE10      30.14F WCI  26          
$$
MIZ043>046-050>051-056>058-064>065-071>073-077>080-231800-
SOUTHWEST LOWER MICHIGAN
  
CITY           SKY/WX    TMP DP  RH WIND       PRES   REMARKS
BATTLE CREEK   CLOUDY    39  25  57 E12G23    30.03F WCI  32          
BENTON HARBOR  CLOUDY    42  27  55 E17G31    29.95F                  
BIG RAPIDS     CLOUDY    33  23  65 SE13G18   30.09F WCI  24          
COLDWATER      CLOUDY    41  27  57 SE12      30.02F                  
FREMONT        CLOUDY    35  23  62 E8        30.05F WCI  28          
HOLLAND        CLOUDY    38  25  59 E17       30.00F WCI  28          
GRAND RAPIDS   PTSUNNY   36  25  64 E20       30.03F WCI  25          
IONIA          CLOUDY    34  24  66 E13       30.07F WCI  25          
KALAMAZOO      PTSUNNY   41  25  53 SE10G20   30.01F                  
LUDINGTON      CLOUDY    35  21  57 E10G17    30.07F WCI  27          
MARSHALL       CLOUDY    39  26  60 E10       30.03F WCI  32          
MOUNT PLEASANT CLOUDY    33  23  65 E14       30.11F WCI  24          
MUSKEGON       CLOUDY    35  22  58 E14G22    30.04F WCI  26          
SOUTH HAVEN    CLOUDY    42  23  46 SE15      29.97F                  
$$
MIZ016>042-231800-
NORTHERN LOWER MICHIGAN
  
CITY           SKY/WX    TMP DP  RH WIND       PRES   REMARKS
ALPENA         CLOUDY    32  25  75 E12       30.23F WCI  23          
BEAVER ISLAND  CLOUDY    30  27  87 E8G17     30.16F WCI  23          
BELLAIRE       CLOUDY    34  23  64 SE5G17    30.16F WCI  30          
CADILLAC       CLOUDY    31  20  63 E14G23    30.08F WCI  21          
CHARLEVOIX     CLOUDY    35  23  62 SE10G16   30.18F WCI  27          
FRANKFORT      CLOUDY    35  23  62 SE9       30.11F WCI  27          
GAYLORD        CLOUDY    30  21  69 SE10G21   30.14F WCI  21          
GRAYLING       CLOUDY    31  22  67 E15       30.14F WCI  20          
HARBOR SPRINGS CLOUDY    32  23  71 E10       30.17F WCI  23          
HOUGHTON LAKE  CLOUDY    31  22  69 E14G23    30.13F WCI  21          
MANISTEE       CLOUDY    35  22  58 E12       30.09F WCI  27          
OSCODA         CLOUDY    32  26  80 E10       30.22F WCI  23          
PELLSTON       CLOUDY    30  24  78 SE13G21   30.18F WCI  20          
ROGERS CITY    CLOUDY    32  26  80 SE14G20   30.22F WCI  22          
TRAVERSE CITY  CLOUDY    36  23  59 SE9G22    30.13F WCI  29          
$$
MIZ007>008-015-231800-
EASTERN UPPER MICHIGAN
  
CITY           SKY/WX    TMP DP  RH WIND       PRES   REMARKS
KINROSS        LGT SNOW  28  26  92 SE9       30.20F FOG     WCI  19  
MACKINAC ISLAN SNOW      30  28  90 E10G21    30.18F VSB 1/2 WCI  21  
NEWBERRY       LGT SNOW  28  26  91 MISG      30.15F VSB 3/4          
S. S. MARIE    LGT SNOW  29  26  89 E8G18     30.20F FOG     WCI  21  
MUNISING         N/A     28  25  88 S9G17     30.14S WCI  19          
$$
MIZ004>006-011>014-085-231800-
CENTRAL UPPER MICHIGAN
  
CITY           SKY/WX    TMP DP  RH WIND       PRES   REMARKS
MANISTIQUE     LGT SNOW  28  23  80 E7        30.15F VSB 1   WCI  21  
ESCANABA       FLURRIES  30  28  92 E13       30.13F WCI  20          
MENOMINEE      CLOUDY    32  26  78 E10       30.10F WCI  24          
SAWYER-GWINN   SNOW      28  27  93 S12       30.10F VSB 1/2 WCI  18  
$$
MIZ001>003-009>011-084-231800-
WESTERN UPPER MICHIGAN
  
CITY           SKY/WX    TMP DP  RH WIND       PRES   REMARKS
IRON MOUNTAIN  LGT SNOW  28  25  88 SE10      30.04F FOG     WCI  19  
HOUGHTON       LGT SNOW  29  24  82 SE12      30.07F WCI  19          
COPPER HARBOR    N/A     29  26  89 SW10G22   30.11F WCI  20          
IRONWOOD       LGT SNOW  29  25  85 SE15G21   29.97F FOG     WCI  18  
$$

ABBREVIATIONS USED IN REMARKS
   TC - TEMPERATURE IN CELSIUS
  WCI - WIND CHILL INDEX
   HX - HEAT INDEX
  VSB - VISIBILITY